N1OTX Weather Reports


time (UTC)temp
C
wind
direction
speed
KPH
gust
KPH
rain 1hr
cm
rain 24hr
cm
rain mn
cm
humidity
%
barometer
mb
20260904201022 26 1 0.0 3.2 0.00 0.00 0.00 54 1007.8
20260904200521 27 346 1.6 4.8 0.00 0.00 0.00 51 1007.9
20260904200021 27 9 0.0 3.2 0.00 0.00 0.00 53 1007.9
20260904195543 27 351 1.6 4.8 0.00 0.00 0.00 50 1007.8
20260904195043 27 341 1.6 4.8 0.00 0.00 0.00 48 1007.7
20260904194523 27 356 1.6 6.4 0.00 0.00 0.00 50 1007.7
20260904194022 26 32 1.6 6.4 0.00 0.00 0.00 55 1007.7
20260904193542 26 327 1.6 3.2 0.00 0.00 0.00 51 1007.7
20260904193022 27 318 1.6 4.8 0.00 0.00 0.00 53 1007.6
20260904192522 27 318 1.6 4.8 0.00 0.00 0.00 50 1007.6
20260904192022 26 329 1.6 4.8 0.00 0.00 0.00 51 1007.7
20260904191521 26 319 0.0 3.2 0.00 0.00 0.00 56 1007.7
20260904191021 27 304 1.6 4.8 0.00 0.00 0.00 54 1007.8
20260904190523 27 354 1.6 4.8 0.00 0.00 0.00 57 1008.0
20260904190023 26 37 1.6 4.8 0.00 0.00 0.00 57 1008.2
20260904185523 26 81 0.0 3.2 0.00 0.00 0.00 61 1008.2
20260904185022 26 309 0.0 1.6 0.00 0.00 0.00 59 1008.1
20260904184522 26 345 1.6 3.2 0.00 0.00 0.00 59 1008.0
20260904184022 26 329 0.0 1.6 0.00 0.00 0.00 64 1008.1
20260904183522 26 340 0.0 3.2 0.00 0.00 0.00 58 1008.1
20260904183021 27 14 1.6 3.2 0.00 0.00 0.00 55 1008.1
20260904182522 27 11 1.6 3.2 0.00 0.00 0.00 57 1008.0
20260904182023 26 321 1.6 4.8 0.00 0.00 0.00 57 1008.1
20260904181521 27 341 1.6 3.2 0.00 0.00 0.00 58 1008.1
20260904181023 27 266 1.6 4.8 0.00 0.00 0.00 57 1008.1
20260904180522 27 339 1.6 4.8 0.00 0.00 0.00 58 1008.1
20260904180022 26 17 1.6 3.2 0.00 0.00 0.00 62 1008.1
20260904175522 26 358 0.0 4.8 0.00 0.00 0.00 59 1008.1
20260904175042 27 336 3.2 6.4 0.00 0.00 0.00 56 1008.1
20260904174522 27 355 1.6 4.8 0.00 0.00 0.00 57 1008.1
20260904174022 27 342 1.6 3.2 0.00 0.00 0.00 60 1008.0
20260904173523 27 355 1.6 4.8 0.00 0.00 0.00 58 1008.0
20260904173023 27 9 1.6 3.2 0.00 0.00 0.00 58 1008.2
20260904172522 27 55 1.6 3.2 0.00 0.00 0.00 61 1008.1
20260904172022 26 275 0.0 1.6 0.00 0.00 0.00 64 1008.5
20260904171522 27 293 0.0 3.2 0.00 0.00 0.00 60 1008.6
20260904171022 27 174 0.0 3.2 0.00 0.00 0.00 61 1008.5
20260904170522 26 24 1.6 4.8 0.00 0.00 0.00 61 1008.7
20260904170021 27 314 1.6 4.8 0.00 0.00 0.00 60 1008.5
20260904165521 27 350 1.6 3.2 0.00 0.00 0.00 61 1008.6
20260904165041 27 37 1.6 4.8 0.00 0.00 0.00 60 1008.5
20260904164520 26 50 1.6 4.8 0.00 0.00 0.00 62 1008.6
20260904164020 26 334 1.6 4.8 0.00 0.00 0.00 60 1008.7
20260904163542 26 18 1.6 6.4 0.00 0.00 0.00 61 1008.6
20260904163022 26 19 1.6 6.4 0.00 0.00 0.00 59 1008.6
20260904162522 26 349 1.6 4.8 0.00 0.00 0.00 60 1008.7
20260904162022 26 329 1.6 4.8 0.00 0.00 0.00 64 1008.8
20260904161541 26 360 1.6 6.4 0.00 0.00 0.00 61 1008.8
20260904161023 26 22 1.6 6.4 0.00 0.00 0.00 64 1009.0
20260904160523 26 351 1.6 4.8 0.00 0.00 0.00 64 1009.0
20260904160023 26 340 1.6 4.8 0.00 0.00 0.00 65 1009.0
20260904155542 26 351 1.6 4.8 0.00 0.00 0.00 65 1009.0
20260904155103 26 7 1.6 4.8 0.00 0.00 0.00 66 1009.0
20260904154522 26 75 1.6 4.8 0.00 0.00 0.00 66 1009.0
20260904154022 26 33 1.6 3.2 0.00 0.00 0.00 67 1009.1
20260904153521 25 338 1.6 3.2 0.00 0.00 0.00 70 1009.1
20260904153021 25 337 1.6 4.8 0.00 0.00 0.00 67 1009.2
20260904152523 25 353 1.6 3.2 0.00 0.00 0.00 69 1009.3
20260904152023 25 329 1.6 3.2 0.00 0.00 0.00 69 1009.3
20260904151520 25 348 1.6 4.8 0.00 0.00 0.00 70 1009.3
20260904151043 25 333 1.6 9.7 0.00 0.00 0.00 69 1009.3
20260904150522 25 345 1.6 6.4 0.00 0.00 0.00 70 1009.4
20260904150022 25 328 1.6 4.8 0.00 0.00 0.00 72 1009.3
20260904145522 25 358 1.6 9.7 0.00 0.00 0.00 70 1009.4
20260904145021 25 349 1.6 3.2 0.00 0.00 0.00 73 1009.3
20260904144526 25 2 0.0 3.2 0.00 0.00 0.00 76 1009.3
20260904144023 24 13 1.6 1.6 0.00 0.00 0.00 77 1009.4
20260904143523 23 12 0.0 1.6 0.00 0.00 0.00 76 1009.5
20260904143022 23 12 1.6 3.2 0.00 0.00 0.00 75 1009.6
20260904142522 23 356 0.0 3.2 0.00 0.00 0.00 78 1009.5
20260904142022 23 341 0.0 3.2 0.00 0.00 0.00 79 1009.5
20260904141522 23 10 1.6 3.2 0.00 0.00 0.00 80 1009.6
20260904141021 23 21 1.6 3.2 0.00 0.00 0.00 80 1009.8
20260904140521 23 273 0.0 3.2 0.00 0.00 0.00 82 1009.8
20260904140021 22 248 0.0 1.6 0.00 0.00 0.00 82 1009.7
20260904135523 22 285 0.0 3.2 0.00 0.00 0.00 84 1009.7
20260904135022 22 39 0.0 3.2 0.00 0.00 0.00 83 1009.6
20260904134522 22 357 0.0 1.6 0.00 0.00 0.00 85 1009.6
20260904134022 22 338 0.0 3.2 0.00 0.00 0.00 86 1009.7
20260904133522 22 285 0.0 3.2 0.00 0.00 0.00 86 1009.7
20260904133022 21 6 0.0 1.6 0.00 0.00 0.00 87 1009.9
20260904132521 21 54 1.6 1.6 0.00 0.00 0.00 87 1009.8
20260904132021 21 62 0.0 3.2 0.00 0.00 0.00 88 1009.9
20260904131521 21 50 0.0 1.6 0.00 0.00 0.00 90 1009.8
20260904131021 21 183 0.0 1.6 0.00 0.00 0.00 91 1009.9
20260904130523 20 194 0.0 3.2 0.00 0.00 0.00 93 1009.9
20260904130043 20 10 0.0 1.6 0.00 0.00 0.00 94 1009.9
20260904125542 20 38 0.0 1.6 0.00 0.00 0.00 95 1010.0
20260904125022 19 320 0.0 3.2 0.00 0.00 0.00 97 1010.0
20260904124522 19 207 0.0 3.2 0.00 0.00 0.00 99 1009.9
20260904124022 19 328 0.0 3.2 0.00 0.00 0.00 99 1009.9
20260904123522 18 123 1.6 3.2 0.00 0.00 0.00 99 1009.8
20260904123041 18 144 0.0 1.6 0.00 0.00 0.00 99 1010.0
20260904122541 18 144 0.0 1.6 0.00 0.00 0.00 99 1010.0
20260904122041 18 0.0 0.0 0.00 0.00 0.00 99 1010.0
20260904121541 18 0.0 1.6 0.00 0.00 0.00 99 1009.9
20260904121020 18 144 0.0 1.6 0.00 0.00 0.00 99 1009.9
20260904120520 18 0.0 0.0 0.00 0.00 0.00 99 1009.9
20260904120042 18 0.0 0.0 0.00 0.00 0.00 99 1009.8
20260904115522 18 0.0 0.0 0.00 0.00 0.00 99 1009.8
20260904115022 18 0.0 0.0 0.00 0.00 0.00 99 1009.9
20260904114521 18 0.0 0.0 0.00 0.00 0.00 99 1009.9
20260904114021 18 0.0 0.0 0.00 0.00 0.00 99 1009.8
20260904113521 18 150 0.0 1.6 0.00 0.00 0.00 99 1009.9
20260904113021 18 0.0 0.0 0.00 0.00 0.00 99 1009.8
20260904112520 18 0.0 0.0 0.00 0.00 0.00 99 1009.7
20260904112020 18 0.0 0.0 0.00 0.00 0.00 99 1009.8
20260904111520 18 0.0 0.0 0.00 0.03 0.00 99 1009.7
20260904111020 18 0.0 0.0 0.00 0.03 0.00 99 1009.7
20260904110520 18 0.0 0.0 0.00 0.03 0.00 99 1009.6
20260904110041 18 152 0.0 1.6 0.00 0.05 0.00 99 1009.8
20260904105521 18 0.0 0.0 0.00 0.05 0.00 99 1009.7
20260904105021 18 151 0.0 1.6 0.00 0.08 0.00 99 1009.6
20260904104601 18 0.0 0.0 0.00 0.08 0.00 99 1009.7
20260904104041 18 0.0 0.0 0.00 0.10 0.00 99 1009.6
20260904103540 18 0.0 0.0 0.00 0.13 0.00 99 1009.6
20260904103025 18 151 0.0 1.6 0.00 0.13 0.00 99 1009.4
20260904102520 18 0.0 0.0 0.00 0.18 0.00 99 1009.4
20260904102024 18 0.0 0.0 0.00 0.20 0.00 99 1009.4
20260904101521 18 0.0 0.0 0.00 0.25 0.00 99 1009.3
20260904101041 18 151 0.0 1.6 0.00 0.28 0.00 99 1009.2
20260904100520 18 152 0.0 1.6 0.00 0.28 0.00 99 1009.3
20260904100021 18 0.0 0.0 0.00 0.28 0.00 99 1009.4
20260904095520 18 0.0 0.0 0.00 0.28 0.00 99 1009.3
20260904095020 18 0.0 0.0 0.00 0.30 0.00 99 1009.3
20260904094520 18 0.0 0.0 0.00 0.30 0.00 99 1009.3
20260904094020 18 0.0 0.0 0.00 0.33 0.00 99 1009.4
20260904093520 18 0.0 0.0 0.00 0.33 0.00 99 1009.4
20260904093021 18 0.0 0.0 0.00 0.33 0.00 99 1009.4
20260904092521 18 0.0 0.0 0.00 0.33 0.00 99 1009.4
20260904092021 18 0.0 0.0 0.00 0.33 0.00 99 1009.3
20260904091601 18 0.0 0.0 0.00 0.33 0.00 99 1009.2
20260904091020 18 0.0 0.0 0.00 0.33 0.00 99 1009.3
20260904090520 18 0.0 0.0 0.00 0.33 0.00 99 1009.3
20260904090020 18 0.0 0.0 0.00 0.33 0.00 99 1009.3
20260904085540 18 0.0 0.0 0.00 0.33 0.00 99 1009.3
20260904085019 18 0.0 0.0 0.00 0.33 0.00 99 1009.2
20260904084521 18 0.0 0.0 0.00 0.33 0.00 99 1009.1
20260904084021 18 0.0 1.6 0.00 0.33 0.00 99 1009.3
20260904083521 18 152 0.0 1.6 0.00 0.41 0.00 99 1009.4
20260904083020 18 0.0 0.0 0.00 0.46 0.00 99 1009.4
20260904082520 18 0.0 0.0 0.00 0.53 0.00 99 1009.4
20260904082020 18 0.0 0.0 0.00 0.56 0.00 99 1009.4
20260904081520 18 0.0 1.6 0.00 0.69 0.00 99 1009.5
20260904081019 18 152 0.0 1.6 0.00 0.79 0.00 99 1009.6
20260904080521 18 0.0 1.6 0.00 0.79 0.00 99 1009.6
20260904080021 18 152 0.0 1.6 0.00 0.79 0.00 99 1009.6
20260904075521 18 152 0.0 1.6 0.00 0.79 0.00 99 1009.7
20260904075021 18 152 0.0 3.2 0.00 0.79 0.00 99 1009.6
20260904074520 18 152 0.0 1.6 0.00 0.79 0.00 99 1009.7
20260904074020 18 152 0.0 1.6 0.00 0.79 0.00 99 1009.7
20260904073602 18 0.0 0.0 0.00 0.79 0.00 99 1009.7
20260904073020 18 152 0.0 1.6 0.00 0.79 0.00 99 1009.9
20260904072519 18 152 0.0 1.6 0.00 0.79 0.00 99 1010.0
20260904072021 18 0.0 0.0 0.00 0.79 0.00 99 1009.9
20260904071521 18 0.0 0.0 0.00 0.79 0.00 99 1009.8
20260904071021 18 0.0 0.0 0.00 0.79 0.00 99 1009.8
20260904070520 18 0.0 0.0 0.00 0.79 0.00 99 1009.8
20260904070021 18 0.0 0.0 0.00 0.79 0.00 99 1009.8
20260904065520 18 0.0 0.0 0.00 0.79 0.00 99 1009.8
20260904065020 18 0.0 0.0 0.00 0.79 0.00 99 1009.8
20260904064520 18 0.0 0.0 0.00 0.79 0.00 99 1009.9
20260904064041 18 0.0 0.0 0.00 0.79 0.00 99 1009.9
20260904063521 18 0.0 1.6 0.00 0.79 0.00 99 1010.0
20260904063024 18 152 0.0 1.6 0.00 0.79 0.00 99 1009.9
20260904062541 18 152 0.0 1.6 0.00 0.79 0.00 99 1009.9
20260904062021 18 152 0.0 1.6 0.00 0.79 0.00 99 1009.9
20260904061520 18 0.0 0.0 0.00 0.79 0.00 99 1010.0
20260904061040 18 0.0 0.0 0.00 0.79 0.00 99 1010.1
20260904060519 18 0.0 1.6 0.00 0.79 0.00 99 1010.2
20260904060021 18 152 0.0 1.6 0.00 0.79 0.00 99 1010.4
20260904055521 18 152 0.0 1.6 0.00 0.79 0.00 99 1010.6
20260904055021 18 152 0.0 1.6 0.00 0.79 0.00 99 1010.6
20260904054520 18 152 0.0 1.6 0.00 0.79 0.00 99 1010.7
20260904054020 18 0.0 1.6 0.00 0.79 0.00 99 1010.7
20260904053520 18 152 1.6 1.6 0.00 0.79 0.00 99 1010.8
20260904053020 18 151 0.0 3.2 0.00 0.79 0.00 99 1010.9
20260904052524 18 128 1.6 3.2 0.00 0.79 0.00 99 1010.9
20260904052020 18 115 1.6 3.2 0.00 0.79 0.00 99 1010.8
20260904051522 18 88 0.0 3.2 0.00 0.79 0.00 99 1010.8
20260904051021 18 112 1.6 4.8 0.00 0.79 0.00 99 1011.0
20260904050521 18 112 0.0 1.6 0.00 0.79 0.00 99 1011.1
20260904050020 18 111 0.0 1.6 0.00 0.79 0.00 99 1011.1
20260904045540 18 0.0 0.0 0.00 0.79 0.00 99 1011.0
20260904045020 18 111 0.0 1.6 0.00 0.79 0.00 99 1011.0
20260904044521 17 112 0.0 1.6 0.00 0.79 0.00 99 1011.0
20260904044019 17 112 0.0 1.6 0.00 0.79 0.00 99 1011.0
20260904043540 17 112 0.0 3.2 0.00 0.79 0.00 99 1011.1
20260904043021 17 124 0.0 1.6 0.00 0.79 0.00 99 1011.2
20260904042521 18 124 0.0 1.6 0.00 0.79 0.00 99 1011.2
20260904042041 18 121 0.0 1.6 0.00 0.79 0.00 99 1011.1
20260904041520 18 80 0.0 1.6 0.00 0.79 0.00 99 1011.4
20260904041020 18 80 0.0 1.6 0.00 0.79 0.00 99 1011.3
20260904040540 18 0.0 0.0 0.00 0.79 0.00 99 1011.2
20260904040040 18 80 0.0 1.6 0.00 0.79 0.00 99 1011.2
20260904035519 18 80 0.0 1.6 0.00 0.79 0.79 99 1011.3
20260904035019 18 80 0.0 1.6 0.00 0.79 0.79 99 1011.2
20260904034521 18 0.0 0.0 0.00 0.79 0.79 99 1011.2
20260904034021 18 0.0 0.0 0.00 0.79 0.79 99 1011.3
20260904033520 18 0.0 0.0 0.00 0.79 0.79 99 1011.4
20260904033020 18 0.0 0.0 0.00 0.79 0.79 99 1011.4
20260904032520 18 0.0 0.0 0.00 0.79 0.79 99 1011.3
20260904032020 18 0.0 0.0 0.00 0.79 0.79 99 1011.2
20260904031520 18 0.0 0.0 0.00 0.79 0.79 99 1011.3
20260904031021 18 0.0 0.0 0.00 0.79 0.79 99 1011.3
20260904030521 18 0.0 0.0 0.00 0.79 0.79 99 1011.3
20260904030021 18 0.0 0.0 0.00 0.79 0.79 99 1011.3
20260904025521 18 0.0 0.0 0.00 0.79 0.79 99 1011.3
20260904025020 18 0.0 0.0 0.00 0.79 0.79 99 1011.3
20260904024520 18 0.0 0.0 0.00 0.79 0.79 99 1011.5
20260904024020 18 0.0 0.0 0.00 0.79 0.79 99 1011.5
20260904023540 18 0.0 0.0 0.00 0.79 0.79 99 1011.6
20260904023020 18 0.0 0.0 0.00 0.79 0.79 99 1011.6
20260904022521 18 0.0 0.0 0.00 0.79 0.79 99 1011.7
20260904022021 18 0.0 0.0 0.00 0.79 0.79 99 1011.7
20260904021521 18 0.0 0.0 0.00 0.79 0.79 99 1011.8
20260904021021 18 0.0 0.0 0.00 0.79 0.79 98 1011.8
20260904020520 18 0.0 0.0 0.00 0.79 0.79 98 1011.8
20260904020020 18 0.0 0.0 0.00 0.79 0.79 98 1012.0
20260904015522 18 0.0 0.0 0.00 0.79 0.79 98 1012.0
20260904015022 18 0.0 0.0 0.00 0.79 0.79 98 1011.8
20260904014521 19 0.0 0.0 0.00 0.79 0.79 98 1011.9
20260904014021 19 0.0 0.0 0.00 0.79 0.79 98 1012.0
20260904013541 19 0.0 0.0 0.00 0.79 0.79 97 1012.0
20260904013041 19 0.0 0.0 0.00 0.79 0.79 97 1012.0
20260904012541 19 0.0 0.0 0.00 0.79 0.79 97 1012.1
20260904012020 19 0.0 0.0 0.00 0.79 0.79 97 1012.1
20260904011621 19 0.0 0.0 0.00 0.79 0.79 97 1012.0
20260904011020 19 0.0 0.0 0.00 0.79 0.79 97 1012.2
20260904010520 19 0.0 0.0 0.00 0.79 0.79 97 1012.0
20260904010020 19 0.0 0.0 0.00 0.79 0.79 96 1012.0
20260904005521 19 0.0 0.0 0.00 0.79 0.79 96 1011.8
20260904005021 20 0.0 0.0 0.00 0.79 0.79 96 1011.8
20260904004522 20 0.0 0.0 0.00 0.79 0.79 96 1011.7
20260904004020 20 0.0 0.0 0.00 0.79 0.79 96 1011.7
20260904003520 20 80 0.0 1.6 0.00 0.79 0.79 95 1011.6
20260904003040 20 79 0.0 1.6 0.00 0.79 0.79 95 1011.5
20260904002520 20 0.0 1.6 0.00 0.79 0.79 94 1011.4
20260904002040 20 177 0.0 1.6 0.00 0.79 0.79 94 1011.4
20260904001522 20 184 1.6 3.2 0.00 0.79 0.79 94 1011.3
20260904001021 20 193 0.0 1.6 0.00 0.79 0.79 95 1011.3
20260904000541 20 193 0.0 1.6 0.00 0.79 0.79 94 1011.3
20260904000041 20 194 0.0 1.6 0.00 0.79 0.79 94 1011.4
20260903235541 20 194 0.0 1.6 0.00 0.79 0.79 95 1011.2
20260903235020 20 0.0 0.0 0.00 0.79 0.79 95 1011.2
20260903234520 20 0.0 0.0 0.00 0.79 0.79 95 1011.1
20260903234019 21 194 0.0 1.6 0.00 0.79 0.79 95 1011.1
20260903233519 21 0.0 0.0 0.00 0.79 0.79 95 1011.1
20260903233023 21 193 0.0 1.6 0.00 0.79 0.79 94 1011.1
20260903232521 21 164 0.0 3.2 0.00 0.79 0.79 94 1011.2
20260903232021 21 128 0.0 1.6 0.00 0.79 0.79 95 1011.3
20260903231621 21 0.0 0.0 0.00 0.79 0.79 95 1011.5
20260903231025 21 127 0.0 1.6 0.00 0.79 0.79 94 1011.3
20260903230520 21 0.0 1.6 0.00 0.79 0.79 93 1011.1
20260903230022 22 127 1.6 4.8 0.00 0.79 0.79 91 1011.1
20260903225521 21 111 0.0 4.8 0.00 0.79 0.79 93 1011.1
20260903225021 22 0.0 0.0 0.00 0.79 0.79 93 1011.1
20260903224521 22 162 0.0 1.6 0.00 0.79 0.79 91 1011.0
20260903224021 21 170 0.0 3.2 0.00 0.79 0.79 93 1011.1
20260903223600 21 182 0.0 1.6 0.00 0.79 0.79 94 1011.3
20260903223022 21 0.0 0.0 0.00 0.79 0.79 93 1011.3
20260903222522 22 0.0 0.0 0.00 0.79 0.79 93 1011.5
20260903222021 22 0.0 0.0 0.00 0.79 0.79 93 1011.6
20260903221521 22 0.0 0.0 0.00 0.79 0.79 92 1011.5
20260903221041 22 182 0.0 1.6 0.00 0.79 0.79 90 1011.5
20260903220521 22 182 1.6 3.2 0.00 0.79 0.79 87 1011.4
20260903220021 22 155 1.6 3.2 0.00 0.79 0.79 89 1011.5
20260903215520 22 0.0 0.0 0.00 0.79 0.79 90 1011.6
20260903215022 22 164 0.0 1.6 0.00 0.79 0.79 88 1011.5
20260903214522 23 163 0.0 3.2 0.00 0.79 0.79 84 1011.3
20260903214022 23 131 1.6 4.8 0.00 0.79 0.79 85 1011.4
20260903213521 22 111 3.2 6.4 0.00 0.79 0.79 87 1011.3
20260903213021 22 164 1.6 4.8 0.00 0.79 0.79 89 1011.4
20260903212541 22 0.0 0.0 0.00 0.79 0.79 88 1011.3
20260903212021 23 201 0.0 1.6 0.00 0.79 0.79 87 1011.3
20260903211520 23 201 0.0 1.6 0.00 0.79 0.79 85 1011.4
20260903211020 23 192 1.6 6.4 0.00 0.79 0.79 84 1011.6
20260903210522 23 174 1.6 6.4 0.00 0.79 0.79 85 1011.4
20260903210021 23 162 0.0 3.2 0.00 0.79 0.79 84 1011.4
20260903205521 23 156 1.6 3.2 0.00 0.79 0.79 84 1011.4
20260903205042 23 152 1.6 4.8 0.00 0.79 0.79 84 1011.4
20260903204521 23 148 0.0 1.6 0.00 0.79 0.79 83 1011.4
20260903204020 23 105 0.0 1.6 0.00 0.79 0.79 83 1011.4
20260903203520 23 67 0.0 3.2 0.00 0.79 0.79 82 1011.5
20260903203020 23 70 1.6 4.8 0.00 0.79 0.79 81 1011.5
20260903202543 23 130 3.2 9.7 0.00 0.79 0.79 80 1011.4
20260903202022 23 115 3.2 6.4 0.00 0.79 0.79 81 1011.6
20260903201520 23 115 1.6 6.4 0.00 0.79 0.79 82 1011.7